Location: Cheyres
(46.8153°N, 6.7877°E)
Time: 19:06:17
(UTC+00:00)

AO-109 - Pass Details

Date: 04 July 2022
Orbit: 469 x 506 km, 60.7° (Epoch: 16 August)

Event Time Altitude Azimuth Distance (km) Brightness Sun altitude
Exits shadow 02:58:43 - 219° (SW) 1,743 ? -6.8°
Reaches altitude 10° 02:58:58 10° 219° (SW) 1,644 ? -6.8°
Maximum altitude 03:02:38 81° 134° (SE) 493 ? -6.3°
Drops below altitude 10° 03:06:24 10° 46° (NE) 1,678 ? -5.9°
Sets 03:08:35 0° 45° (NE) 2,571 ? -5.6°
